Weather History for Valley City, ND

Change the Weather History Date:

Tuesday, December 18, 2012

  Actual Average (KJMS) Record (KJMS)
Temperature  
Mean Temperature 20 °F 13 °F  
Max Temperature 24 °F 22 °F 54 °F (2011)
Min Temperature 15 °F 4 °F -27 °F (1951)
Degree Days  
Heating Degree Days 46 52  
Month to date heating degree days 884  
Since 1 July heating degree days 2968  
Cooling Degree Days 0 0  
Month to date cooling degree days 0  
Year to date cooling degree days 446  
Moisture  
Dew Point 22 °F    
Average Humidity 100    
Maximum Humidity 100    
Minimum Humidity 100    
Precipitation  
Precipitation 0.25 in 0.01 in 0.18 in (1996)
Month to date precipitation 0.22  
Year to date precipitation 18.59  
Sea Level Pressure  
Sea Level Pressure 29.60 in    
Wind  
Wind Speed 5 mph (SSE)    
Max Wind Speed 9 mph    
Max Gust Speed -    
Visibility 3 miles    
Events Fog , Snow    
T = Trace of Precipitation, MM = Missing Value Source: NWS Daily Summary

Daily Weather History Graph

Daily Weather History Graph

Search for Another Location

Airport:

Trip Planner

Search our weather history database for the weather conditions in past years. The results will help you decide how hot, cold, wet, or windy it might be!

Date:

Astronomy

Dec. 18, 2012 Rise Set
Actual Time 8:13 AM CST 4:44 PM CST
Civil Twilight 7:37 AM CST 5:20 PM CST
Nautical Twilight 6:59 AM CST 5:58 PM CST
Astronomical Twilight 6:22 AM CST 6:35 PM CST
Moon 11:33 AM CST (12/18) 11:35 PM CST (12/18)
Length of Visible Light 9h 42m
Length of Day
8h 31m
Waxing Crescent, 35% of the Moon is Illuminated
Dec 18
Waxing Crescent
Dec 19
First Quarter
Dec 28
Full
Jan 4
Last Quarter
Jan 11
New

Hourly Weather History & Observations

Time (CST) Temp. Windchill Dew Point Humidity Pressure Visibility Wind Dir Wind Speed Gust Speed Precip Events Conditions
12:15 AM 19.4 °F 14.3 °F 19.4 °F 100% 29.58 in 3.0 mi South 3.5 mph - N/A   Overcast
12:35 AM 19.4 °F 11.5 °F 19.4 °F 100% 29.57 in 3.0 mi SE 5.8 mph - N/A   Overcast
12:55 AM 19.4 °F 11.5 °F 19.4 °F 100% 29.57 in 3.0 mi SE 5.8 mph - N/A   Overcast
1:15 AM 19.4 °F 11.5 °F 19.4 °F 100% 29.57 in 3.0 mi SE 5.8 mph - N/A   Overcast
1:35 AM 19.4 °F 10.4 °F 19.4 °F 100% 29.56 in 2.5 mi SE 6.9 mph - N/A   Overcast
1:55 AM 19.4 °F - 19.4 °F 100% 29.57 in 2.0 mi Calm Calm - N/A   Overcast
2:15 AM 19.4 °F 12.8 °F 19.4 °F 100% 29.56 in 1.2 mi ESE 4.6 mph - N/A   Overcast
2:35 AM 21.2 °F 12.6 °F 21.2 °F 100% 29.56 in 1.0 mi ESE 6.9 mph - N/A   Overcast
2:55 AM 21.2 °F 12.6 °F 21.2 °F 100% 29.56 in 0.8 mi ESE 6.9 mph - N/A   Overcast
3:15 AM 21.2 °F 16.4 °F 21.2 °F 100% 29.57 in 0.5 mi ESE 3.5 mph - N/A Fog Light Freezing Fog
3:35 AM 21.2 °F 13.6 °F 21.2 °F 100% 29.57 in 0.8 mi East 5.8 mph - N/A   Overcast
3:55 AM 21.2 °F 12.6 °F 21.2 °F 100% 29.57 in 0.5 mi ESE 6.9 mph - N/A Fog Light Freezing Fog
4:15 AM 21.2 °F 12.6 °F 21.2 °F 100% 29.56 in 0.5 mi ESE 6.9 mph - N/A Fog Light Freezing Fog
4:35 AM 21.2 °F 12.6 °F 21.2 °F 100% 29.57 in 0.5 mi ESE 6.9 mph - N/A Fog Light Freezing Fog
4:55 AM 21.2 °F 12.6 °F 21.2 °F 100% 29.56 in 0.8 mi ESE 6.9 mph - N/A   Overcast
5:15 AM 21.2 °F 14.9 °F 21.2 °F 100% 29.57 in 1.2 mi ESE 4.6 mph - N/A   Overcast
5:35 AM 23.0 °F 15.8 °F 23.0 °F 100% 29.57 in 3.0 mi ESE 5.8 mph - N/A   Overcast
6:15 AM 21.2 °F 13.6 °F 21.2 °F 100% 29.57 in 0.5 mi SE 5.8 mph - N/A Fog Light Freezing Fog
6:35 AM 21.2 °F 13.6 °F 21.2 °F 100% 29.57 in 1.8 mi SE 5.8 mph - N/A   Overcast
6:55 AM 21.2 °F 13.6 °F 21.2 °F 100% 29.58 in 2.5 mi SE 5.8 mph - N/A   Overcast
7:15 AM 21.2 °F 12.6 °F 21.2 °F 100% 29.58 in 2.0 mi SSE 6.9 mph - N/A   Overcast
7:35 AM 21.2 °F 13.6 °F 21.2 °F 100% 29.58 in 0.8 mi SE 5.8 mph - N/A   Overcast
7:55 AM 21.2 °F 14.9 °F 21.2 °F 100% 29.59 in 0.8 mi SSE 4.6 mph - N/A   Overcast
8:15 AM 23.0 °F 17.0 °F 23.0 °F 100% 29.58 in 0.2 mi SE 4.6 mph - N/A Fog Light Freezing Fog
8:35 AM 21.2 °F 12.6 °F 21.2 °F 100% 29.59 in 0.2 mi SE 6.9 mph - N/A Fog Light Freezing Fog
8:55 AM 23.0 °F 15.8 °F 23.0 °F 100% 29.59 in 0.5 mi SSE 5.8 mph - N/A   Overcast
9:15 AM 21.2 °F 13.6 °F 21.2 °F 100% 29.59 in 1.2 mi South 5.8 mph - N/A   Overcast
9:35 AM 23.0 °F 17.0 °F 23.0 °F 100% 29.59 in 3.0 mi SSE 4.6 mph - N/A   Overcast
9:55 AM 23.0 °F 15.8 °F 23.0 °F 100% 29.59 in 3.0 mi SE 5.8 mph - N/A   Overcast
10:15 AM 23.0 °F 17.0 °F 23.0 °F 100% 29.60 in 3.0 mi South 4.6 mph - N/A   Overcast
10:35 AM 23.0 °F 15.8 °F 23.0 °F 100% 29.61 in 3.0 mi South 5.8 mph - N/A   Overcast
10:55 AM 23.0 °F 15.8 °F 23.0 °F 100% 29.61 in 2.5 mi South 5.8 mph - N/A   Overcast
11:15 AM 23.0 °F 15.8 °F 23.0 °F 100% 29.61 in 2.5 mi South 5.8 mph - N/A   Overcast
11:35 AM 23.0 °F 14.7 °F 23.0 °F 100% 29.61 in 2.5 mi SSW 6.9 mph - N/A   Overcast
11:55 AM 23.0 °F 17.0 °F 23.0 °F 100% 29.61 in 2.5 mi South 4.6 mph - N/A   Overcast
12:15 PM 23.0 °F 18.4 °F 23.0 °F 100% 29.60 in 3.0 mi South 3.5 mph - N/A   Overcast
12:35 PM 23.0 °F 15.8 °F 23.0 °F 100% 29.60 in 5.0 mi South 5.8 mph - N/A   Overcast
12:55 PM 23.0 °F 14.7 °F 23.0 °F 100% 29.60 in 4.0 mi South 6.9 mph - N/A   Overcast
1:15 PM 24.8 °F 17.9 °F 24.8 °F 100% 29.59 in 3.0 mi South 5.8 mph - N/A   Overcast
1:35 PM 24.8 °F 19.1 °F 24.8 °F 100% 29.59 in 3.0 mi South 4.6 mph - N/A   Overcast
1:55 PM 24.8 °F 20.5 °F 24.8 °F 100% 29.59 in 1.5 mi SSE 3.5 mph - 0.01 in Snow Light Snow
2:15 PM 24.8 °F 19.1 °F 24.8 °F 100% 29.59 in 3.0 mi SSE 4.6 mph - N/A Snow Light Snow
2:35 PM 24.8 °F 17.9 °F 24.8 °F 100% 29.60 in 1.2 mi SSE 5.8 mph - 0.03 in Snow Light Snow
2:55 PM 24.8 °F 19.1 °F 24.8 °F 100% 29.60 in 2.0 mi SSE 4.6 mph - 0.06 in Snow Light Snow
3:15 PM 24.8 °F 17.9 °F 24.8 °F 100% 29.60 in 1.8 mi South 5.8 mph - 0.02 in Snow Light Snow
3:35 PM 24.8 °F 17.9 °F 24.8 °F 100% 29.60 in 3.0 mi South 5.8 mph - 0.03 in Snow Light Snow
3:55 PM 24.8 °F 17.9 °F 24.8 °F 100% 29.60 in 2.5 mi South 5.8 mph - 0.04 in Snow Light Snow
4:15 PM 24.8 °F 17.9 °F 24.8 °F 100% 29.60 in 1.8 mi SSE 5.8 mph - 0.01 in Snow Light Snow
4:35 PM 24.8 °F 19.1 °F 24.8 °F 100% 29.60 in 0.8 mi SSE 4.6 mph - 0.06 in Snow Light Snow
4:55 PM 24.8 °F 17.9 °F 24.8 °F 100% 29.61 in 1.0 mi SSE 5.8 mph - 0.14 in Snow Light Snow
5:15 PM 24.8 °F 17.9 °F 24.8 °F 100% 29.62 in 2.5 mi South 5.8 mph - N/A Snow Light Snow
5:35 PM 24.8 °F 17.9 °F 24.8 °F 100% 29.62 in 3.0 mi South 5.8 mph - N/A Snow Light Snow
5:55 PM 24.8 °F 17.9 °F 24.8 °F 100% 29.62 in 4.0 mi South 5.8 mph - N/A   Overcast
6:15 PM 24.8 °F 16.9 °F 24.8 °F 100% 29.63 in 4.0 mi South 6.9 mph - N/A   Overcast
6:35 PM 24.8 °F 17.9 °F 24.8 °F 100% 29.63 in 4.0 mi South 5.8 mph - N/A   Overcast
6:55 PM 24.8 °F 19.1 °F 24.8 °F 100% 29.63 in 4.0 mi South 4.6 mph - N/A   Overcast
7:15 PM 24.8 °F 20.5 °F 24.8 °F 100% 29.64 in 4.0 mi South 3.5 mph - N/A   Overcast
7:35 PM 24.8 °F 19.1 °F 24.8 °F 100% 29.64 in 3.0 mi South 4.6 mph - N/A   Overcast
7:55 PM 24.8 °F 20.5 °F 24.8 °F 100% 29.64 in 4.0 mi South 3.5 mph - N/A   Overcast
8:15 PM 24.8 °F 19.1 °F 24.8 °F 100% 29.64 in 4.0 mi South 4.6 mph - N/A   Overcast
8:35 PM 24.8 °F 19.1 °F 24.8 °F 100% 29.64 in 4.0 mi SSW 4.6 mph - N/A   Overcast
8:55 PM 23.0 °F 14.7 °F 23.0 °F 100% 29.65 in 6.0 mi West 6.9 mph - N/A   Overcast
9:15 PM 23.0 °F 17.0 °F 23.0 °F 100% 29.65 in 7.0 mi West 4.6 mph - N/A   Scattered Clouds
9:35 PM 15.8 °F 10.2 °F 15.8 °F 100% 29.66 in 3.0 mi SW 3.5 mph - N/A   Partly Cloudy
9:55 PM 19.4 °F - 19.4 °F 100% 29.65 in 0.8 mi Calm Calm - N/A   Overcast
10:15 PM 21.2 °F 16.4 °F 21.2 °F 100% 29.66 in 4.0 mi SSW 3.5 mph - N/A   Overcast
10:35 PM 23.0 °F - 23.0 °F 100% 29.65 in 5.0 mi Calm Calm - N/A   Overcast
10:55 PM 23.0 °F 17.0 °F 23.0 °F 100% 29.66 in 5.0 mi SSW 4.6 mph - N/A   Overcast
11:15 PM 21.2 °F 10.9 °F 21.2 °F 100% 29.67 in 5.0 mi SSW 9.2 mph - N/A   Overcast
11:35 PM 19.4 °F 12.8 °F 19.4 °F 100% 29.66 in 5.0 mi SW 4.6 mph - N/A   Overcast
11:55 PM 17.6 °F 8.2 °F 17.6 °F 100% 29.67 in 8.0 mi SW 6.9 mph - N/A   Scattered Clouds